Location: Estes Park
(40.3770°N, 105.5210°W)
Time: 19:56:41
(UTC-07:00)

OTV 5 (USA 277) - Pass Details

Date: 10 October 2017
Orbit: 404 x 417 km, 43.0° (Epoch: 07 September)

Event Time Altitude Azimuth Distance (km) Brightness Sun altitude
Rises 20:51:15 0° 261° (W) 2,344 ? -27.7°
Reaches altitude 10° 20:53:22 10° 264° (W) 1,482 ? -28.1°
Enters shadow 20:54:23 18° 267° (W) 1,080 ? -28.2°
